TimeEST,TemperatureF,Dew PointF,Humidity,Sea Level PressureIn,VisibilityMPH,Wind Direction,Wind SpeedMPH,Gust SpeedMPH,PrecipitationIn,Events,Conditions,WindDirDegrees,DateUTC
12:58 AM,35.2,28.6,77,29.98,10.0,West,8.1,-,N/A,,Clear,270,2013-03-03 05:58:00
1:58 AM,36.0,27.1,70,29.97,10.0,West,9.2,-,N/A,,Clear,280,2013-03-03 06:58:00
2:58 AM,35.1,26.8,72,29.94,10.0,West,10.4,-,N/A,,Clear,280,2013-03-03 07:58:00
3:58 AM,35.1,26.6,71,29.94,10.0,West,10.4,-,N/A,,Clear,280,2013-03-03 08:58:00
4:58 AM,34.2,26.4,73,29.96,10.0,West,10.4,-,N/A,,Clear,280,2013-03-03 09:58:00
5:58 AM,33.4,26.4,75,29.96,10.0,West,11.5,-,N/A,,Clear,280,2013-03-03 10:58:00
6:58 AM,33.1,26.1,75,29.97,10.0,WNW,11.5,-,N/A,,Clear,290,2013-03-03 11:58:00
7:13 AM,33.8,26.6,75,29.97,10.0,WNW,11.5,-,N/A,,Mostly Cloudy,290,2013-03-03 12:13:00
7:33 AM,33.8,26.6,75,29.97,10.0,WNW,10.4,-,N/A,,Overcast,300,2013-03-03 12:33:00
7:58 AM,36.0,26.1,67,29.98,10.0,WNW,11.5,-,N/A,,Overcast,300,2013-03-03 12:58:00
8:45 AM,37.4,26.6,65,29.99,10.0,NW,10.4,-,N/A,,Overcast,320,2013-03-03 13:45:00
8:58 AM,38.1,25.9,61,30.00,10.0,NW,12.7,-,N/A,,Overcast,310,2013-03-03 13:58:00
9:58 AM,40.8,26.1,56,30.01,10.0,NW,12.7,-,N/A,,Overcast,310,2013-03-03 14:58:00
10:38 AM,39.2,24.8,56,30.00,10.0,NW,12.7,-,N/A,,Overcast,320,2013-03-03 15:38:00
10:48 AM,41.0,24.8,53,30.00,10.0,NW,9.2,-,N/A,,Overcast,310,2013-03-03 15:48:00
10:53 AM,41.0,24.8,53,30.00,10.0,NW,11.5,-,N/A,,Overcast,310,2013-03-03 15:53:00
10:58 AM,40.6,25.0,54,30.01,10.0,NW,12.7,-,N/A,,Overcast,310,2013-03-03 15:58:00
11:58 AM,41.4,24.6,51,30.01,10.0,WNW,10.4,-,N/A,,Overcast,300,2013-03-03 16:58:00
12:58 PM,45.1,24.1,44,29.98,10.0,West,16.1,19.6,N/A,,Overcast,280,2013-03-03 17:58:00
1:58 PM,46.0,22.3,39,29.97,10.0,WNW,10.4,-,N/A,,Overcast,300,2013-03-03 18:58:00
2:12 PM,46.4,23.0,40,29.95,10.0,West,13.8,19.6,N/A,,Overcast,280,2013-03-03 19:12:00
2:58 PM,45.0,22.3,41,29.96,10.0,West,13.8,-,N/A,,Overcast,270,2013-03-03 19:58:00
3:39 PM,44.6,21.2,39,29.95,10.0,West,13.8,23.0,N/A,,Overcast,270,2013-03-03 20:39:00
3:58 PM,46.4,21.9,38,29.96,10.0,West,15.0,21.9,N/A,,Overcast,280,2013-03-03 20:58:00
4:58 PM,44.2,21.0,40,29.97,10.0,WNW,15.0,-,N/A,,Overcast,300,2013-03-03 21:58:00
5:58 PM,42.1,20.8,43,30.01,10.0,West,15.0,-,N/A,,Mostly Cloudy,270,2013-03-03 22:58:00
6:58 PM,38.3,22.1,52,30.03,10.0,West,8.1,-,N/A,,Clear,260,2013-03-03 23:58:00
7:58 PM,34.2,22.1,61,30.04,10.0,West,6.9,-,N/A,,Clear,260,2013-03-04 00:58:00
8:58 PM,36.3,23.4,59,30.06,10.0,West,9.2,-,N/A,,Clear,260,2013-03-04 01:58:00
9:58 PM,32.9,22.6,66,30.07,10.0,WSW,6.9,-,N/A,,Clear,250,2013-03-04 02:58:00
10:58 PM,33.3,23.2,67,30.08,10.0,WSW,5.8,-,N/A,,Clear,240,2013-03-04 03:58:00
11:58 PM,33.8,23.4,66,30.08,10.0,WSW,5.8,-,N/A,,Clear,240,2013-03-04 04:58:00